[[{"header":{"parameterUnit":"m.s-1","parameterCategory":1,"la1":30.2991,"la2":30.254,"lo1":-89.0895,"lo2":-89.0444,"dy":0.0017,"dx":0.0017,"nx":28,"ny":28,"refTime":"2023-07-25T21:00:00:Z","depth":0,"parameterNumber":2,"parameterNumberName":"U-component_of_WINDS"},"data":[0,0,0,0,0,0,0,0,0,0,0,0,0,0,0,0,0,0,0,0,0,0,0,0,0,0,0,0,0,0,0,0,0,0,0,0,0,0,0,0,0,0,0,0,0,0,0,0,0,0,0,0,0,0,0,0,0,0,1.2287,1.2287,0,1.232,1.2321,1.2321,1.232,1.2319,1.2319,1.2318,1.2353,1.2355,1.2356,0,0,0,0,0,0,0,0,0,0,0,0,0,1.2223,1.2224,1.2287,1.2287,1.2287,1.232,1.2321,1.2321,1.232,1.2319,1.2319,1.2318,1.2353,1.2355,1.2356,0,0,0,0,0,0,0,0,0,0,0,0,0,1.2253,1.2224,1.2286,1.2291,1.2291,1.232,1.2321,1.2321,1.232,1.2319,1.2319,1.2318,1.2352,1.2354,1.2356,1.2383,0,0,1.2363,1.2364,0,0,0,0,0,0,0,0,1.2251,1.2255,1.229,1.229,1.2291,1.2315,1.2311,1.2342,1.232,1.2309,1.2318,1.2318,1.2341,1.2344,1.2352,1.2385,1.2386,1.2363,1.2364,1.2365,1.2366,0,0,0,0,0,0,0,1.2249,1.2254,1.23,1.229,1.2291,1.2291,1.2295,1.2317,1.2329,1.231,1.231,1.2314,1.2342,1.235,1.2353,1.2387,1.2363,1.2365,1.2366,1.2367,1.2445,1.2446,0,0,0,0,0,0,1.2246,1.2252,1.2299,1.2301,1.2269,1.2293,1.2297,1.2308,1.2329,1.2331,1.2315,1.2314,1.2347,1.2351,1.2354,1.2388,1.2365,1.2367,1.2368,1.2445,1.2446,1.2447,0,0,0,0,0,0,1.2244,1.225,1.2297,1.2276,1.2283,1.2295,1.2308,1.2309,1.2318,1.2332,1.2334,1.2321,1.2347,1.2351,1.2376,1.2389,1.2368,1.237,1.2444,1.2445,1.2446,1.2455,0,0,0,0,0,0,1.2243,1.2249,1.2259,1.2277,1.2284,1.2319,1.2308,1.231,1.2321,1.2321,1.2339,1.2341,1.2346,1.2373,1.2379,1.2391,1.2371,1.2443,1.2444,1.2446,1.2454,1.2456,1.2459,0,0,0,0,0,1.224,1.226,1.226,1.2265,1.2296,1.2319,1.2323,1.2329,1.2322,1.2333,1.2342,1.234,1.2387,1.2376,1.2382,1.2395,1.2442,1.2444,1.2446,1.2452,1.2456,1.2459,0,0,0,0,0,0,1.2243,1.2262,1.2262,1.2288,1.2302,1.2319,1.2332,1.2332,1.2349,1.2347,1.2354,1.2358,1.2384,1.2392,1.238,1.2424,1.2414,1.2417,1.2417,1.242,1.2423,1.242,1.2373,0,0,0,0,0,1.2247,1.2264,1.228,1.2301,1.2309,1.2319,1.233,1.2333,1.2348,1.2354,1.2365,1.238,1.2398,1.241,1.2427,1.2455,1.246,1.2468,1.247,1.2472,1.2475,1.2492,1.2496,1.2453,1.2453,1.2453,0,0,1.2255,1.2268,1.2278,1.2302,1.2314,1.2332,1.2324,1.2343,1.2357,1.2357,1.2381,1.239,1.2407,1.2434,1.2447,1.2442,1.2488,1.2475,1.2476,1.2478,1.2494,1.2498,1.2502,1.2454,1.2454,1.2454,0,0,1.2279,1.2289,1.2309,1.2321,1.2338,1.2346,1.235,1.2368,1.2374,1.2399,1.2399,1.2416,1.2447,1.2459,1.247,1.25,1.25,1.2506,1.2519,1.2536,1.2539,1.2542,1.2553,1.2557,1.2508,1.2508,1.2509,0,1.2286,1.2313,1.2319,1.2339,1.235,1.2351,1.2372,1.2383,1.2405,1.2413,1.2408,1.2448,1.2459,1.249,1.2498,1.2506,1.2512,1.2503,1.2538,1.2541,1.2544,1.2555,1.2559,1.2509,1.2509,1.2509,1.2509,0,1.2322,1.2341,1.2354,1.2376,1.2389,1.2409,1.2419,1.2432,1.2435,1.2443,1.2469,1.2483,1.2504,1.2512,1.2514,1.2543,1.254,1.2536,1.2526,1.2549,1.2559,1.2563,1.251,1.251,1.251,1.2509,0,0,1.2347,1.2373,1.2378,1.2389,1.2409,1.2424,1.2445,1.2465,1.2476,1.2492,1.251,1.2537,1.2534,1.2546,1.2551,1.2565,1.2589,1.256,1.256,1.2565,1.2623,1.2626,1.2631,1.2589,1.259,1.2591,1.2622,0,1.2373,1.2409,1.2416,1.2448,1.2466,1.2469,1.2487,1.2502,1.251,1.2527,1.2537,1.2556,1.2551,1.2558,1.2573,1.2583,1.2601,1.2581,1.2607,1.2607,1.2602,1.2636,1.2639,1.2667,1.2626,1.2627,1.2627,0,1.2407,1.2424,1.2458,1.2478,1.2485,1.2501,1.2522,1.2538,1.2556,1.2561,1.2575,1.2578,1.2601,1.2591,1.2622,1.2609,1.262,1.2627,1.2628,1.2631,1.2618,1.264,1.2676,1.2681,1.2634,1.2633,1.2633,0,1.2423,1.2454,1.2479,1.2488,1.2511,1.2523,1.2533,1.255,1.2562,1.258,1.2589,1.2609,1.262,1.2636,1.2645,1.2637,1.2677,1.2667,1.2682,1.2682,1.269,1.2689,1.2729,1.2697,1.2697,1.2697,1.2697,0,1.2451,1.2471,1.2487,1.2502,1.2525,1.2534,1.2558,1.2568,1.2583,1.2601,1.2604,1.2621,1.2632,1.2651,1.2658,1.2684,1.2689,1.2694,1.2696,1.2694,1.2693,1.2701,1.2699,1.2698,1.2698,1.2698,1.2698,0,1.2472,1.2482,1.251,1.253,1.2535,1.2552,1.2569,1.2585,1.2594,1.2617,1.2623,1.2637,1.266,1.267,1.2698,1.2703,1.2732,1.2733,1.2726,1.2727,1.2742,1.274,1.2788,1.2795,1.2758,1.2759,1.2759,0,1.2489,1.2505,1.2527,1.2539,1.255,1.2569,1.2582,1.2592,1.2606,1.2628,1.2641,1.2663,1.2682,1.2717,1.2731,1.2752,1.2753,1.2769,1.2756,1.2754,1.2754,1.2753,1.2755,1.277,1.2771,1.2771,1.2771,0,1.2518,1.2523,1.2541,1.2563,1.2578,1.2595,1.2612,1.2622,1.2635,1.265,1.2673,1.2687,1.2716,1.2739,1.2761,1.2772,1.2774,1.2775,1.278,1.2778,1.2774,1.2777,1.2732,1.2774,1.2774,1.2773,1.2773,1.2773,1.2538,1.2553,1.2571,1.2592,1.2606,1.2622,1.2638,1.265,1.2669,1.2693,1.2698,1.2722,1.2741,1.2772,1.2784,1.2804,1.28,1.2807,1.2809,1.281,1.2811,1.2771,1.2808,1.2808,1.2808,1.2808,1.2808,0,1.2567,1.258,1.2599,1.2623,1.264,1.2641,1.266,1.2674,1.2696,1.2713,1.2731,1.2758,1.2781,1.2797,1.282,1.2833,1.2834,1.2838,1.2837,1.284,1.2813,1.2807,1.2837,1.2837,1.2837,1.2837,1.2837,1.2837,1.2585,1.261,1.2618,1.2651,1.2664,1.2688,1.2699,1.2714,1.2728,1.2758,1.2777,1.2787,1.2804,1.2829,1.285,1.2854,1.2862,1.2867,1.2871,1.2845,1.2842,1.2839,1.2833,1.2868,1.2868,1.2896,1.2897,1.2897]},{"header":{"parameterUnit":"m.s-1","parameterCategory":1,"la1":30.2991,"la2":30.254,"lo1":-89.0895,"lo2":-89.0444,"dy":0.0017,"dx":0.0017,"nx":28,"ny":28,"refTime":"2023-07-25T21:00:00:Z","depth":0,"parameterNumber":3,"parameterNumberName":"V-component_of_WINDS"},"data":[0,0,0,0,0,0,0,0,0,0,0,0,0,0,0,0,0,0,0,0,0,0,0,0,0,0,0,0,0,0,0,0,0,0,0,0,0,0,0,0,0,0,0,0,0,0,0,0,0,0,0,0,0,0,0,0,0,0,-1.5101,-1.5101,0,-1.5121,-1.5121,-1.5121,-1.5112,-1.5111,-1.5111,-1.511,-1.513,-1.5131,-1.5132,0,0,0,0,0,0,0,0,0,0,0,0,0,-1.5054,-1.5055,-1.5101,-1.5101,-1.5101,-1.5121,-1.5121,-1.5122,-1.5112,-1.5111,-1.511,-1.511,-1.513,-1.5131,-1.5132,0,0,0,0,0,0,0,0,0,0,0,0,0,-1.5074,-1.5055,-1.5101,-1.5099,-1.5099,-1.5121,-1.5121,-1.5122,-1.5112,-1.5111,-1.511,-1.511,-1.513,-1.5131,-1.5133,-1.5158,0,0,-1.5137,-1.5138,0,0,0,0,0,0,0,0,-1.5073,-1.5076,-1.5099,-1.5099,-1.5099,-1.5113,-1.5112,-1.5134,-1.5112,-1.5107,-1.511,-1.5109,-1.5125,-1.5127,-1.5132,-1.5159,-1.5159,-1.5137,-1.5138,-1.5139,-1.5139,0,0,0,0,0,0,0,-1.5071,-1.5075,-1.5109,-1.5099,-1.5099,-1.5097,-1.5099,-1.5116,-1.512,-1.5107,-1.5107,-1.5109,-1.5125,-1.5131,-1.5133,-1.516,-1.5137,-1.5139,-1.514,-1.514,-1.521,-1.5211,0,0,0,0,0,0,-1.507,-1.5074,-1.5108,-1.5109,-1.5084,-1.5098,-1.5101,-1.5109,-1.512,-1.5121,-1.511,-1.5109,-1.5129,-1.5131,-1.5134,-1.5165,-1.5139,-1.514,-1.5141,-1.5209,-1.521,-1.5211,0,0,0,0,0,0,-1.5069,-1.5073,-1.5107,-1.5091,-1.5095,-1.51,-1.511,-1.511,-1.5116,-1.5122,-1.5122,-1.5115,-1.5128,-1.5131,-1.5152,-1.5166,-1.5141,-1.5142,-1.5208,-1.5209,-1.521,-1.5228,0,0,0,0,0,0,-1.5068,-1.5073,-1.5082,-1.5092,-1.5096,-1.5125,-1.5111,-1.5111,-1.5119,-1.5117,-1.5127,-1.5128,-1.5128,-1.515,-1.5154,-1.5167,-1.5144,-1.5206,-1.5208,-1.521,-1.5226,-1.523,-1.5233,0,0,0,0,0,-1.5066,-1.5086,-1.5083,-1.5087,-1.5108,-1.5126,-1.5129,-1.5129,-1.512,-1.513,-1.5134,-1.5128,-1.5164,-1.5152,-1.5156,-1.5171,-1.5206,-1.5208,-1.521,-1.5225,-1.5229,-1.5233,0,0,0,0,0,0,-1.5077,-1.5087,-1.5084,-1.5107,-1.5116,-1.5124,-1.5137,-1.5133,-1.5144,-1.5143,-1.5142,-1.5144,-1.5166,-1.517,-1.5157,-1.5197,-1.5183,-1.5186,-1.5193,-1.5197,-1.5201,-1.5199,-1.5145,0,0,0,0,0,-1.5082,-1.5096,-1.5104,-1.5123,-1.5128,-1.5132,-1.514,-1.5139,-1.5148,-1.5152,-1.5157,-1.5166,-1.518,-1.5189,-1.5201,-1.5226,-1.5229,-1.5238,-1.5242,-1.5244,-1.5247,-1.5263,-1.5268,-1.5218,-1.5218,-1.5218,0,0,-1.5093,-1.51,-1.5109,-1.5126,-1.5133,-1.5148,-1.5135,-1.5151,-1.5162,-1.5154,-1.5175,-1.5179,-1.5189,-1.5213,-1.5224,-1.5217,-1.5262,-1.5247,-1.5249,-1.5251,-1.5266,-1.527,-1.5275,-1.5219,-1.5219,-1.5219,0,0,-1.512,-1.5126,-1.5144,-1.5152,-1.5163,-1.5166,-1.517,-1.518,-1.5183,-1.5203,-1.5198,-1.5212,-1.5234,-1.5243,-1.525,-1.5282,-1.5278,-1.5286,-1.5304,-1.5319,-1.5323,-1.5326,-1.534,-1.5344,-1.5289,-1.5289,-1.5289,0,-1.5132,-1.5154,-1.5154,-1.5171,-1.5179,-1.5174,-1.5193,-1.52,-1.5214,-1.522,-1.5213,-1.5243,-1.5249,-1.5276,-1.5284,-1.5289,-1.5295,-1.5285,-1.5322,-1.5326,-1.5329,-1.5342,-1.5346,-1.529,-1.529,-1.529,-1.529,0,-1.5169,-1.5185,-1.5198,-1.5213,-1.5223,-1.5241,-1.5244,-1.5254,-1.5253,-1.5256,-1.5278,-1.5286,-1.5301,-1.5307,-1.5305,-1.5334,-1.533,-1.5322,-1.5309,-1.5335,-1.5347,-1.5352,-1.5292,-1.5291,-1.5291,-1.5291,0,0,-1.5203,-1.5219,-1.5224,-1.5232,-1.5245,-1.5257,-1.5275,-1.529,-1.53,-1.531,-1.5326,-1.5346,-1.534,-1.5348,-1.5348,-1.5361,-1.5388,-1.5352,-1.5352,-1.536,-1.5422,-1.5429,-1.5434,-1.5385,-1.5386,-1.5387,-1.5422,0,-1.5232,-1.5264,-1.5266,-1.5295,-1.531,-1.5306,-1.5322,-1.5332,-1.5336,-1.535,-1.5354,-1.5369,-1.5359,-1.5364,-1.5377,-1.5382,-1.5401,-1.538,-1.5401,-1.5402,-1.54,-1.544,-1.5446,-1.5479,-1.5426,-1.5427,-1.5428,0,-1.527,-1.5284,-1.5315,-1.5327,-1.5334,-1.5348,-1.5363,-1.5376,-1.5388,-1.539,-1.54,-1.5398,-1.5417,-1.5403,-1.543,-1.5416,-1.5425,-1.5429,-1.543,-1.5433,-1.5417,-1.5445,-1.5489,-1.5495,-1.5435,-1.5434,-1.5434,0,-1.5294,-1.5319,-1.5342,-1.5348,-1.5363,-1.5373,-1.538,-1.5391,-1.5401,-1.5414,-1.542,-1.5435,-1.5444,-1.5456,-1.5458,-1.5447,-1.5486,-1.5472,-1.5489,-1.5489,-1.5498,-1.5498,-1.5546,-1.5502,-1.5502,-1.5502,-1.5502,0,-1.5327,-1.5347,-1.5353,-1.5367,-1.5389,-1.5391,-1.5413,-1.5419,-1.5429,-1.5444,-1.5441,-1.5455,-1.5457,-1.5473,-1.5475,-1.5498,-1.5501,-1.5504,-1.5505,-1.5505,-1.5505,-1.5512,-1.551,-1.5503,-1.5503,-1.5503,-1.5502,0,-1.5358,-1.5362,-1.5387,-1.5399,-1.5403,-1.5419,-1.543,-1.5443,-1.5448,-1.5467,-1.5472,-1.5479,-1.5497,-1.5501,-1.5521,-1.5523,-1.5551,-1.5549,-1.5548,-1.5548,-1.5566,-1.5564,-1.562,-1.5628,-1.5578,-1.5579,-1.5579,0,-1.5379,-1.5394,-1.5409,-1.5419,-1.5427,-1.5443,-1.5454,-1.5456,-1.5467,-1.5483,-1.5495,-1.5513,-1.5527,-1.5557,-1.5563,-1.558,-1.5579,-1.5597,-1.5581,-1.5582,-1.5581,-1.558,-1.5583,-1.56,-1.5601,-1.5601,-1.5602,0,-1.5417,-1.5419,-1.5435,-1.5452,-1.5464,-1.5478,-1.549,-1.5499,-1.5503,-1.5516,-1.5535,-1.5546,-1.5569,-1.5587,-1.5604,-1.5611,-1.5608,-1.5607,-1.5612,-1.5613,-1.5613,-1.5615,-1.5557,-1.5606,-1.5605,-1.5605,-1.5605,-1.5605,-1.5445,-1.5459,-1.5472,-1.549,-1.55,-1.5512,-1.5526,-1.5533,-1.5549,-1.5568,-1.5568,-1.5589,-1.5602,-1.5624,-1.5633,-1.5649,-1.5644,-1.5651,-1.5653,-1.5655,-1.5657,-1.5609,-1.5652,-1.5652,-1.5652,-1.5652,-1.5652,0,-1.5484,-1.5492,-1.5509,-1.5527,-1.5542,-1.5538,-1.5552,-1.5564,-1.5583,-1.5595,-1.561,-1.5633,-1.5651,-1.566,-1.5678,-1.569,-1.5689,-1.5695,-1.5695,-1.5697,-1.5661,-1.5655,-1.5696,-1.5696,-1.5696,-1.5696,-1.5696,-1.5695,-1.5506,-1.5531,-1.5534,-1.5564,-1.5573,-1.5594,-1.5603,-1.5614,-1.5624,-1.565,-1.5666,-1.5671,-1.5683,-1.5702,-1.5719,-1.5721,-1.5729,-1.5735,-1.5737,-1.5703,-1.5699,-1.5695,-1.569,-1.5737,-1.5737,-1.5772,-1.5772,-1.5772]}]]